Regional Weather Roundup
Issued by NWS Charleston, SC

Current Version | Previous Version | Graphics & Text | Print | Product List | Glossary On
Versions: 1 2 3 4 5 6 7 8 9 10 11 12 13 14 15 16 17 18 19 20 21 22 23 24 25 26 27 28 29 30 31 32 33 34 35 36 37 38 39 40 41 42 43 44 45 46 47 48 49 50
000 ASUS42 KCHS 022011 RWRCHS REGIONAL WEATHER ROUNDUP NATIONAL WEATHER SERVICE CHARLESTON SC 300 PM EST MON MAR 02 2015 NOTE: "FAIR" INDICATES FEW OR NO CLOUDS BELOW 12,000 FEET WITH NO SIGNIFICANT WEATHER AND/OR OBSTRUCTIONS TO VISIBILITY. NOT ALL STATIONS ARE QUALITY CONTROLLED BY THE NATIONAL WEATHER SERVICE. USE DATA WITH CAUTION...ESPECIALLY DEWPOINT OBSERVATIONS. SCZ027-030-031-034>040-042>050-022100- ...SOUTHEAST SOUTH CAROLINA... CITY SKY/WX TMP DP RH WIND PRES REMARKS N CHARLESTON MOSUNNY 74 58 57 W10 30.19F WATERFRONT PRK N/A 70 N/A N/A SW8 N/A MOUNT PLEASANT FAIR 72 59 64 W7 30.19S PINOPOLIS N/A 64 55 72 VRB3 30.12S MONCKS CORNER FAIR 72 57 60 N6 30.18S SUMMERVILLE FAIR 72 59 64 W8 30.19F BEAUFORT MCAS MOSUNNY 70 58 65 W9 30.21F BEAUFORT ARPT FAIR 70 61 73 CALM 30.21F HILTON HEAD IS SUNNY 64 57 77 SE6 30.23F WALTERBORO PTCLDY 73 61 64 W8 30.20F ALLENDALE FAIR 73 59 60 VRB7 30.19F ...SOUTHERN MIDLANDS AND PEE DEE... CITY SKY/WX TMP DP RH WIND PRES REMARKS GEORGETOWN NOT AVBL KINGSTREE NOT AVBL ORANGEBURG SUNNY 75 55 49 NW6 30.17F BARNWELL FAIR 75 59 57 SW9 30.19F AIKEN FAIR 75 55 50 SW6 30.20F MANNING MOCLDY 72 39 30 CALM 30.18F COLUMBIA PTSUNNY 71 55 56 N3 30.17F SUMTER MOSUNNY 70 55 59 VRB3 30.16F FLORENCE MOSUNNY 64 51 62 CALM 30.20F MYRTLE BEACH MOSUNNY 63 54 72 N14 30.23S N MYRTLE BEACH PTSUNNY 61 51 70 NW9 30.21S $$ GAZ063-065-086>088-099>101-113>116-118-119-134>141-150-022100- ...SOUTHEAST GEORGIA... CITY SKY/WX TMP DP RH WIND PRES REMARKS SAVANNAH ARPT PTSUNNY 75 58 55 W9 30.21F HUNTER AAF SUNNY 76 61 59 W7 30.19F FORT STEWART SUNNY 74 60 60 W7 30.20F STATESBORO MOSUNNY 74 61 63 W6 30.22F SYLVANIA PTCLDY 71 60 69 W8G16 30.22F CLAXTON FAIR 72 61 68 W8 30.23F ...CSRA...CENTRAL AND FAR SOUTHEAST GEORGIA... CITY SKY/WX TMP DP RH WIND PRES REMARKS THOMSON MOSUNNY 75 61 60 W6 30.23S AUGUSTA-BUSH MOSUNNY 74 56 53 W10 30.17F AUGUSTA-DANIEL SUNNY 75 56 51 SW6 30.18F SWAINSBORO NOT AVBL VIDALIA SUNNY 72 61 68 SW10 30.23F EASTMAN FAIR 72 61 67 W8 30.25F HAZLEHURST FAIR 73 62 68 NW3 30.23F ALMA MOSUNNY 69 59 70 W6 30.25F WAYCROSS CLOUDY 74 65 74 NW7 30.24F JESUP FAIR 73 63 68 NW6 30.24F BAXLEY FAIR 70 61 73 W3 30.24F BRUNSWICK MOSUNNY 73 61 64 W8 30.24F SAINT SIMONS MOSUNNY 70 60 70 W7 30.23F $$ SCZ027-028-034-036>038-045-046-048>050-GAZ119-141-022100- ...LAKE AND SUPPLEMENTAL COASTAL OBSERVATIONS... STATION/POSITION TIME TEMP WIND PRES WAVE SWELL AIR SEA DIR/SP/G HT/PER HT/PER/DIR (UTC) (F) (DEG/KT/KT) (MB) (FT/S) (FT/S/D) UPR LAKE MARION NOT AVBL WINYAH BAY NOT AVBL LAKE MURRAY 1900 62 160/ 4/ 4 1022.0F ACE BASIN NERRS NOT AVBL FORT PULASKI 1900 64 49 280/ 9/ 11 1024.2F SAPELO ISLAND 1900 69 250/ 2 1024.0F $$ ANZ835-935-AMZ111-154-330-350-352-354-370-450-454-472-022100- ...C-MAN AND BUOY OBSERVATIONS... STATION/POSITION TIME TEMP WIND PRES WAVE SWELL AIR SEA DIR/SP/G HT/PER HT/PER/DIR (UTC) (F) (DEG/KT/KT) (MB) (FT/S) (FT/S/D) BUOY 41004 1950 59 68 260/ 10/ 14 1022.6F 4/10 3/10 BUOY 41008 1950 53 54 200/ 6/ 8 1023.8F 3/ 9 3/ 90/ 9 FOLLY BEACH CMAN 2000 54 220/ 12/ 13 1023.0F CAPERS NEARSHORE NOT AVBL FRIPP NEARSHORE 1900 54 220/ 6/ 6 1023.3F STATION/POSITION TIME TEMP WIND PRES WAVE SWELL AIR SEA DIR/SP/G HT/PER HT/PER/DIR (UTC) (F) (DEG/KT/KT) (MB) (FT/S) (FT/S/D) 5E ST. MARYS GA 1921 53 N/A 3/ 9 FRYING PAN BUOY 1950 54 62 320/ 8/ 10 1023.4F 4/ 8 3/130/ 8 BUOY 41025 NOT AVBL CAPE LOOKOUT NC 1900 54 300/ 3/ 3 1022.9F BUOY 41002 1950 72 74 280/ 12/ 16 1022.2F 5/ 9 5/110/ 9 BUOY 41010 1920 74 76 240/ 4/ 6 1024.1F ST AUGUSTINE FL 2000 57 120/ 3/ 4 1024.2F $$

USA.gov is the U.S. government's official web portal to all federal, state and local government web resources and services.